Change the Weather History Date:

Saturday, September 28, 2013

  Actual Average (KBIS) Record (KBIS)
Temperature  
Mean Temperature 53 °F 53 °F  
Max Temperature 64 °F 66 °F 97 °F (1905)
Min Temperature 42 °F 40 °F 19 °F (1951)
Degree Days  
Heating Degree Days 12 12  
Month to date heating degree days 204  
Since 1 July heating degree days 259  
Cooling Degree Days 0 0  
Month to date cooling degree days 37  
Year to date cooling degree days 518  
Growing Degree Days 3 (Base 50)    
Moisture  
Dew Point 40 °F    
Average Humidity 69    
Maximum Humidity 93    
Minimum Humidity 34    
Precipitation  
Precipitation 0.00 in 0.04 in 0.41 in (1891)
Month to date precipitation 1.50  
Year to date precipitation 15.31  
Snow  
Snow 0.00 in 0.00 in 0.00 in (2002)
Month to date snowfall 0.2  
Since 1 July snowfall 0.2  
Since 1 September snowfall 0.2  
Snow Depth -    
Sea Level Pressure  
Sea Level Pressure 29.80 in    
Wind  
Wind Speed 9 mph (West)    
Max Wind Speed 22 mph    
Max Gust Speed 29 mph    
Visibility 10 miles    
Events Rain    
T = Trace of Precipitation, MM = Missing Value Source: NWS Daily Summary

Daily Weather History Graph

Daily Weather History Graph

Search for Another Location

Airport or City:

Trip Planner

Search our weather history database for the weather conditions in past years. The results will help you decide how hot, cold, wet, or windy it might be!

Date:

Astronomy

Sep. 28, 2013 Rise Set
Actual Time 7:38 AM CDT 7:28 PM CDT
Civil Twilight 7:08 AM CDT 7:58 PM CDT
Nautical Twilight 6:33 AM CDT 8:34 PM CDT
Astronomical Twilight 5:57 AM CDT 9:09 PM CDT
Moon 1:08 AM CDT (9/28) 4:06 PM CDT (9/28)
Length of Visible Light 12h 50m
Length of Day
11h 49m
Waning Crescent, 36% of the Moon is Illuminated
Sep 28
Waning Crescent
Oct 4
New
Oct 11
First Quarter
Oct 18
Full
Oct 26
Last Quarter

Hourly Weather History & Observations

Time (CDT) Temp. Windchill Dew Point Humidity Pressure Visibility Wind Dir Wind Speed Gust Speed Precip Events Conditions
12:15 AM 46.4 °F 44.3 °F 44.6 °F 93% 29.86 in 10.0 mi West 4.6 mph - N/A   Overcast
12:35 AM 46.4 °F 45.2 °F 44.6 °F 93% 29.84 in 10.0 mi West 3.5 mph - N/A Rain Light Rain
12:55 AM 46.4 °F 43.5 °F 44.6 °F 93% 29.84 in 10.0 mi West 5.8 mph - N/A   Overcast
1:15 AM 46.4 °F 42.4 °F 44.6 °F 93% 29.85 in 10.0 mi West 8.1 mph - N/A Rain Light Rain
1:35 AM 46.4 °F 43.5 °F 44.6 °F 93% 29.83 in 10.0 mi West 5.8 mph - N/A   Overcast
1:55 AM 46.4 °F 43.5 °F 44.6 °F 93% 29.83 in 10.0 mi West 5.8 mph - N/A   Overcast
2:15 AM 46.4 °F 41.9 °F 44.6 °F 93% 29.82 in 10.0 mi West 9.2 mph - N/A   Overcast
2:35 AM 46.4 °F 42.9 °F 42.8 °F 87% 29.83 in 10.0 mi West 6.9 mph - N/A   Overcast
2:55 AM 44.6 °F 39.7 °F 42.8 °F 93% 29.82 in 10.0 mi West 9.2 mph - N/A   Overcast
3:15 AM 44.6 °F 39.7 °F 42.8 °F 93% 29.81 in 10.0 mi West 9.2 mph - N/A   Overcast
3:35 AM 44.6 °F 40.7 °F 42.8 °F 93% 29.79 in 10.0 mi West 6.9 mph - N/A   Overcast
3:55 AM 44.6 °F 39.7 °F 42.8 °F 93% 29.78 in 10.0 mi West 9.2 mph - N/A   Overcast
4:15 AM 44.6 °F 39.7 °F 42.8 °F 93% 29.80 in 10.0 mi West 9.2 mph - N/A   Overcast
4:35 AM 44.6 °F 38.8 °F 42.8 °F 93% 29.81 in 10.0 mi West 11.5 mph - N/A   Overcast
4:55 AM 44.6 °F 40.2 °F 42.8 °F 93% 29.81 in 10.0 mi West 8.1 mph - N/A Rain Light Rain
5:15 AM 44.6 °F 40.2 °F 42.8 °F 93% 29.81 in 10.0 mi West 8.1 mph - N/A   Overcast
5:35 AM 44.6 °F 42.2 °F 41.0 °F 87% 29.81 in 10.0 mi West 4.6 mph - N/A   Overcast
5:55 AM 44.6 °F 41.4 °F 41.0 °F 87% 29.80 in 10.0 mi WSW 5.8 mph - N/A   Overcast
6:15 AM 44.6 °F 41.4 °F 41.0 °F 87% 29.80 in 10.0 mi West 5.8 mph - N/A   Overcast
6:35 AM 44.6 °F 40.7 °F 41.0 °F 87% 29.79 in 10.0 mi West 6.9 mph - N/A   Overcast
6:55 AM 44.6 °F 40.7 °F 41.0 °F 87% 29.79 in 10.0 mi West 6.9 mph - N/A   Overcast
7:15 AM 44.6 °F 39.2 °F 41.0 °F 87% 29.79 in 10.0 mi West 10.4 mph - N/A   Overcast
7:35 AM 44.6 °F 39.2 °F 41.0 °F 87% 29.79 in 10.0 mi West 10.4 mph - N/A   Mostly Cloudy
7:55 AM 44.6 °F 39.7 °F 41.0 °F 87% 29.79 in 10.0 mi West 9.2 mph - N/A   Partly Cloudy
8:15 AM 42.8 °F 38.0 °F 41.0 °F 93% 29.80 in 10.0 mi West 8.1 mph - N/A   Partly Cloudy
8:35 AM 42.8 °F 38.0 °F 39.2 °F 87% 29.80 in 10.0 mi West 8.1 mph - N/A   Clear
8:55 AM 44.6 °F 40.2 °F 41.0 °F 87% 29.80 in 10.0 mi West 8.1 mph - N/A   Mostly Cloudy
9:15 AM 44.6 °F 39.2 °F 41.0 °F 87% 29.80 in 10.0 mi West 10.4 mph - N/A   Mostly Cloudy
9:35 AM 46.4 °F 41.1 °F 41.0 °F 81% 29.80 in 10.0 mi West 11.5 mph - N/A   Scattered Clouds
9:55 AM 48.2 °F - 41.0 °F 76% 29.80 in 10.0 mi West 11.5 mph 16.1 mph N/A   Clear
10:15 AM 50.0 °F - 41.0 °F 71% 29.79 in 10.0 mi West 13.8 mph - N/A   Clear
10:35 AM 50.0 °F - 41.0 °F 71% 29.79 in 10.0 mi West 11.5 mph 17.3 mph N/A   Clear
10:55 AM 51.8 °F - 41.0 °F 67% 29.79 in 10.0 mi West 12.7 mph - N/A   Clear
11:15 AM 53.6 °F - 39.2 °F 58% 29.79 in 10.0 mi West 13.8 mph 18.4 mph N/A   Clear
11:35 AM 55.4 °F - 41.0 °F 58% 29.79 in 10.0 mi West 12.7 mph 17.3 mph N/A   Clear
11:55 AM 57.2 °F - 39.2 °F 51% 29.79 in 10.0 mi West 12.7 mph - N/A   Clear
12:15 PM 57.2 °F - 39.2 °F 51% 29.78 in 10.0 mi West 13.8 mph 19.6 mph N/A   Clear
12:35 PM 57.2 °F - 39.2 °F 51% 29.78 in 10.0 mi West 13.8 mph 18.4 mph N/A   Scattered Clouds
12:55 PM 59.0 °F - 39.2 °F 48% 29.78 in 10.0 mi WSW 13.8 mph - N/A   Partly Cloudy
1:15 PM 59.0 °F - 39.2 °F 48% 29.78 in 10.0 mi West 18.4 mph 24.2 mph N/A   Partly Cloudy
1:35 PM 60.8 °F - 39.2 °F 45% 29.78 in 10.0 mi West 18.4 mph - N/A   Scattered Clouds
1:55 PM 60.8 °F - 39.2 °F 45% 29.77 in 10.0 mi West 15.0 mph 25.3 mph N/A   Clear
2:15 PM 62.6 °F - 39.2 °F 42% 29.77 in 10.0 mi West 16.1 mph 21.9 mph N/A   Clear
2:35 PM 62.6 °F - 37.4 °F 39% 29.77 in 10.0 mi West 16.1 mph 20.7 mph N/A   Partly Cloudy
2:55 PM 64.4 °F - 35.6 °F 34% 29.77 in 10.0 mi West 19.6 mph 27.6 mph N/A   Partly Cloudy
3:15 PM 62.6 °F - 35.6 °F 37% 29.77 in 10.0 mi West 20.7 mph 26.5 mph N/A   Clear
3:35 PM 64.4 °F - 37.4 °F 37% 29.77 in 10.0 mi West 18.4 mph 24.2 mph N/A   Partly Cloudy
3:55 PM 64.4 °F - 35.6 °F 34% 29.78 in 10.0 mi West 21.9 mph 28.8 mph N/A   Mostly Cloudy
4:15 PM 62.6 °F - 35.6 °F 37% 29.78 in 10.0 mi West 17.3 mph 25.3 mph N/A   Mostly Cloudy
4:35 PM 60.8 °F - 35.6 °F 39% 29.78 in 10.0 mi West 13.8 mph - N/A   Overcast
4:55 PM 60.8 °F - 35.6 °F 39% 29.79 in 10.0 mi West 15.0 mph 20.7 mph N/A   Mostly Cloudy
5:15 PM 60.8 °F - 37.4 °F 42% 29.79 in 10.0 mi West 11.5 mph - N/A   Overcast
5:35 PM 59.0 °F - 39.2 °F 48% 29.80 in 10.0 mi West 10.4 mph - N/A   Overcast
5:55 PM 59.0 °F - 39.2 °F 48% 29.80 in 10.0 mi West 8.1 mph - N/A   Overcast
6:15 PM 60.8 °F - 39.2 °F 45% 29.81 in 10.0 mi West 11.5 mph - N/A   Overcast
6:35 PM 59.0 °F - 41.0 °F 51% 29.81 in 10.0 mi West 5.8 mph - N/A   Overcast
6:55 PM 57.2 °F - 41.0 °F 55% 29.81 in 10.0 mi West 5.8 mph - N/A   Mostly Cloudy
7:15 PM 55.4 °F - 39.2 °F 54% 29.81 in 10.0 mi WSW 4.6 mph - N/A   Partly Cloudy
7:35 PM 55.4 °F - 39.2 °F 54% 29.81 in 10.0 mi SW 4.6 mph - N/A   Partly Cloudy
7:55 PM 53.6 °F - 39.2 °F 58% 29.81 in 10.0 mi SW 5.8 mph - N/A   Mostly Cloudy
8:15 PM 53.6 °F - 39.2 °F 58% 29.81 in 10.0 mi SW 6.9 mph - N/A   Overcast
8:35 PM 53.6 °F - 39.2 °F 58% 29.82 in 10.0 mi SW 6.9 mph - N/A   Overcast
8:55 PM 51.8 °F - 39.2 °F 62% 29.82 in 10.0 mi SW 8.1 mph - N/A   Mostly Cloudy
9:15 PM 50.0 °F - 39.2 °F 66% 29.82 in 10.0 mi SW 8.1 mph - N/A   Clear
9:35 PM 50.0 °F - 39.2 °F 66% 29.82 in 10.0 mi SW 8.1 mph - N/A   Clear
9:55 PM 50.0 °F - 39.2 °F 66% 29.82 in 10.0 mi SW 9.2 mph - N/A   Clear
10:15 PM 48.2 °F - 39.2 °F 71% 29.82 in 10.0 mi SW 9.2 mph - N/A   Clear
10:35 PM 48.2 °F - 39.2 °F 71% 29.82 in 10.0 mi SW 9.2 mph - N/A   Clear
10:55 PM 46.4 °F 42.9 °F 39.2 °F 76% 29.82 in 10.0 mi WSW 6.9 mph - N/A   Clear
11:15 PM 46.4 °F 41.5 °F 39.2 °F 76% 29.82 in 10.0 mi SW 10.4 mph - N/A   Clear
11:35 PM 46.4 °F 41.9 °F 39.2 °F 76% 29.82 in 10.0 mi SW 9.2 mph - N/A   Clear
11:55 PM 46.4 °F 42.4 °F 39.2 °F 76% 29.82 in 10.0 mi SW 8.1 mph - N/A   Clear